Hourly Data Report for October 21, 2015

All times are specified in Local Standard Time (LST). Add 1 hour to adjust for Daylight Saving Time where and when it is observed.

PETAWAWA AWOS 2
ONTARIO

45°57'00.000" N
77°19'00.000" W
130.10 m
6106396
71625
YWA

Download Data

Hourly Data (October 2015)
Hourly Data Report for October 21, 2015
Temp Definition
°C
Dew Point Temp Definition
°C
Rel Hum Definition
%
Wind Dir Definition
10's deg

Wind Spd Definition
km/h
Visibility Definition
km
Stn Press Definition
kPa
Hmdx Definition


Wind Chill Definition


Weather Definition


TIME
00:00 -1.4 -3.9 83 26 6 14.5 100.98   -4 LegendNANA
01:00 -2.1 -4.1 86 24 4 14.5 101.03   -4 LegendNANA
02:00 -2.6 -4.5 87 26 4 14.5 101.04   -4 LegendNANA
03:00 -3.1 -5.3 85 28 7 14.5 101.07   -6 LegendNANA
04:00 -3.6 -5.6 86 29 4 14.5 101.13   -5 LegendNANA
05:00 -3.3 -5.6 84 26 4 14.5 101.19   -5 LegendNANA
06:00 -4.0 -5.5 89 27 4 14.5 101.22   -6 LegendNANA
07:00 -2.7 -4.6 87 26 4 14.5 101.25   -4 LegendNANA
08:00 -0.1 -2.7 83 27 4 14.5 101.30   -1 LegendNANA
09:00 3.6 -3.9 58 8 4 14.5 101.31     LegendNANA
10:00 4.5 -3.8 55 12 7 14.5 101.29     LegendNANA
11:00 5.9 -2.7 54 14 9 14.5 101.20     LegendNANA
12:00 6.8 -3.7 47 15 11 14.5 101.10     LegendNANA
13:00 7.0 -3.6 47 16 11 14.5 101.01     LegendNANA
14:00 7.2 -3.3 47 16 13 14.5 100.95     LegendNANA
15:00 7.2 -2.5 50 17 6 14.5 100.89     LegendNANA
16:00 7.2 -2.5 50 17 7 14.5 100.81     LegendNANA
17:00 7.2 -2.7 49 15 13 14.5 100.72     Snow
18:00 7.2 -1.7 53 15 17 14.5 100.67     LegendNANA
19:00 6.9 -0.9 58 14 17 14.5 100.59     LegendNANA
20:00 6.8 0.6 65 14 17 14.5 100.48     Rain
21:00 6.1 2.7 79 15 15 12.9 100.33     Moderate Rain
22:00 7.3 2.5 72 15 17 14.5 100.20     Drizzle
23:00 7.2 3.0 75 15 20 14.5 100.11     Rain

Notes on Data Quality.

Legend

  • E = Estimated
  • M = Missing
  • NA = Not Available
  • ‡ = Partner data that is not subject to review by the National Climate Archives
Date modified: